EW7157 Weather Reports


time (UTC)temp
C
wind
direction
speed
KPH
gust
KPH
rain 1hr
cm
rain 24hr
cm
rain mn
cm
humidity
%
barometer
mb
20260906192519 27 131 0.0 3.2 0.00 0.00 0.00 48 1037.0
20260906192419 27 127 0.0 3.2 0.00 0.00 0.00 48 1037.0
20260906190420 27 180 0.0 0.0 0.00 0.00 0.00 48 1037.1
20260906185420 27 180 0.0 0.0 0.00 0.00 0.00 48 1037.2
20260906185320 27 180 0.0 0.0 0.00 0.00 0.00 48 1037.3
20260906184319 26 90 0.0 0.0 0.00 0.00 0.00 48 1037.4
20260906183319 26 202 0.0 1.6 0.00 0.00 0.00 47 1037.4
20260906182319 26 157 0.0 0.0 0.00 0.00 0.00 50 1037.4
20260906182221 26 157 0.0 3.2 0.00 0.00 0.00 50 1037.4
20260906182119 26 135 1.6 4.8 0.00 0.00 0.00 50 1037.4
20260906182021 27 90 0.0 4.8 0.00 0.00 0.00 50 1037.4
20260906181118 26 180 0.0 0.0 0.00 0.00 0.00 52 1037.5
20260906181018 26 180 0.0 0.0 0.00 0.00 0.00 52 1037.6
20260906174121 25 157 0.0 0.0 0.00 0.00 0.00 53 1037.7
20260906174020 25 157 0.0 1.6 0.00 0.00 0.00 53 1037.7
20260906173919 25 157 0.0 3.2 0.00 0.00 0.00 53 1037.6
20260906172921 25 243 0.0 0.0 0.00 0.00 0.00 55 1037.6
20260906172018 25 177 1.6 4.8 0.00 0.00 0.00 55 1037.7
20260906171021 25 191 0.0 4.8 0.00 0.00 0.00 56 1037.7
20260906165919 24 151 0.0 3.2 0.00 0.00 0.00 61 1037.9
20260906164919 24 101 0.0 0.0 0.00 0.00 0.00 57 1038.0
20260906163919 24 90 0.0 0.0 0.00 0.00 0.00 62 1037.9
20260906162920 23 132 0.0 1.6 0.00 0.00 0.00 62 1037.8
20260906162019 24 236 0.0 0.0 0.00 0.00 0.00 61 1037.9
20260906161919 24 180 0.0 0.0 0.00 0.00 0.00 62 1037.8
20260906160921 23 121 0.0 0.0 0.00 0.00 0.00 63 1037.9
20260906160018 23 180 0.0 0.0 0.00 0.00 0.00 62 1037.9
20260906155019 24 180 0.0 0.0 0.00 0.00 0.00 61 1037.9
20260906154020 24 180 0.0 0.0 0.00 0.00 0.00 61 1038.0
20260906153118 23 81 0.0 0.0 0.00 0.00 0.00 63 1037.9
20260906152121 22 92 0.0 0.0 0.00 0.00 0.00 65 1038.1
20260906150219 23 180 0.0 0.0 0.00 0.00 0.00 64 1037.8
20260906150122 23 209 0.0 0.0 0.00 0.00 0.00 63 1037.9
20260906145220 22 90 0.0 0.0 0.00 0.00 0.00 65 1037.9
20260906145118 22 90 0.0 0.0 0.00 0.00 0.00 65 1037.9
20260906144121 23 180 0.0 0.0 0.00 0.00 0.00 62 1037.9
20260906143021 23 180 0.0 0.0 0.00 0.00 0.00 61 1037.8
20260906140919 25 89 0.0 0.0 0.00 0.00 0.00 61 1037.7
20260906135920 24 270 0.0 0.0 0.00 0.00 0.00 66 1037.6
20260906135020 23 225 0.0 0.0 0.00 0.00 0.00 68 1037.5
20260906134019 22 180 0.0 0.0 0.00 0.00 0.00 70 1037.5
20260906133020 21 360 0.0 0.0 0.00 0.00 0.00 76 1037.3
20260906125221 18 180 0.0 0.0 0.00 0.00 0.00 85 1037.6
20260906124220 17 180 0.0 0.0 0.00 0.00 0.00 89 1037.5
20260906123220 16 180 0.0 0.0 0.00 0.00 0.00 93 1037.4
20260906123120 16 180 0.0 0.0 0.00 0.00 0.00 92 1037.5
20260906122219 16 180 0.0 0.0 0.00 0.00 0.00 94 1037.4
20260906121220 16 180 0.0 0.0 0.00 0.00 0.00 94 1037.4
20260906120219 15 180 0.0 0.0 0.00 0.00 0.00 94 1037.3
20260906120120 15 180 0.0 0.0 0.00 0.00 0.00 93 1037.3
20260906115119 15 180 0.0 0.0 0.00 0.00 0.00 94 1037.0
20260906114120 15 180 0.0 0.0 0.00 0.00 0.00 93 1036.9
20260906113118 15 180 0.0 0.0 0.00 0.00 0.00 93 1036.9
20260906112119 15 180 0.0 0.0 0.00 0.00 0.00 93 1036.7
20260906111119 15 180 0.0 0.0 0.00 0.00 0.00 93 1036.7
20260906110118 15 180 0.0 0.0 0.00 0.00 0.00 93 1036.5
20260906105121 15 180 0.0 0.0 0.00 0.00 0.00 92 1036.2
20260906104120 15 180 0.0 0.0 0.00 0.00 0.00 93 1036.1
20260906104018 15 180 0.0 0.0 0.00 0.00 0.00 93 1036.1
20260906103019 15 180 0.0 0.0 0.00 0.00 0.00 93 1036.0
20260906102021 15 180 0.0 0.0 0.00 0.00 0.00 93 1036.0
20260906101920 15 180 0.0 0.0 0.00 0.00 0.00 93 1036.0
20260906100919 15 180 0.0 0.0 0.00 0.00 0.00 92 1035.9
20260906095921 15 180 0.0 0.0 0.00 0.00 0.00 92 1035.5
20260906095822 15 180 0.0 0.0 0.00 0.00 0.00 92 1035.6
20260906094919 15 180 0.0 0.0 0.00 0.00 0.00 93 1035.4
20260906093921 15 180 0.0 0.0 0.00 0.00 0.00 92 1035.4
20260906092118 15 180 0.0 0.0 0.00 0.00 0.00 92 1035.1
20260906091119 15 180 0.0 0.0 0.00 0.00 0.00 91 1035.0
20260906090121 15 180 0.0 0.0 0.00 0.00 0.00 91 1034.8
20260906085119 15 180 0.0 0.0 0.00 0.00 0.00 90 1034.9
20260906084119 15 180 0.0 0.0 0.00 0.00 0.00 89 1035.0
20260906083121 15 180 0.0 0.0 0.00 0.00 0.00 90 1034.7
20260906082120 15 180 0.0 0.0 0.00 0.00 0.00 89 1034.7
20260906081120 15 180 0.0 0.0 0.00 0.00 0.00 90 1034.8
20260906080119 15 180 0.0 0.0 0.00 0.00 0.00 89 1034.7
20260906075121 16 180 0.0 0.0 0.00 0.00 0.00 89 1034.5
20260906074219 16 180 0.0 0.0 0.00 0.00 0.00 89 1034.6
20260906073220 16 180 0.0 0.0 0.00 0.00 0.00 89 1034.5
20260906072222 16 180 0.0 0.0 0.00 0.00 0.00 89 1034.5
20260906071319 16 180 0.0 0.0 0.00 0.00 0.00 87 1034.7
20260906070320 16 180 0.0 0.0 0.00 0.00 0.00 88 1034.5
20260906065320 16 180 0.0 0.0 0.00 0.00 0.00 87 1034.6
20260906064419 16 180 0.0 0.0 0.00 0.00 0.00 86 1034.6
20260906063518 16 180 0.0 0.0 0.00 0.00 0.00 87 1034.6
20260906062521 16 180 0.0 0.0 0.00 0.00 0.00 86 1034.7
20260906061519 16 180 0.0 0.0 0.00 0.00 0.00 85 1034.8
20260906061421 16 180 0.0 0.0 0.00 0.00 0.00 84 1034.8
20260906060519 16 180 0.0 0.0 0.00 0.00 0.00 85 1035.1
20260906055521 16 180 0.0 0.0 0.00 0.00 0.00 84 1035.0
20260906054521 16 180 0.0 0.0 0.00 0.00 0.00 84 1035.1
20260906054421 16 180 0.0 0.0 0.00 0.00 0.00 85 1035.1
20260906053420 16 180 0.0 0.0 0.00 0.00 0.00 84 1035.1
20260906051520 16 180 0.0 0.0 0.00 0.00 0.00 84 1035.2
20260906050619 17 180 0.0 0.0 0.00 0.00 0.00 84 1035.2
20260906045621 17 180 0.0 0.0 0.00 0.00 0.00 83 1035.2
20260906044719 17 180 0.0 0.0 0.00 0.00 0.00 82 1035.3
20260906043719 17 180 0.0 0.0 0.00 0.00 0.00 82 1035.2
20260906042719 17 180 0.0 0.0 0.00 0.00 0.00 83 1035.2
20260906041719 17 180 0.0 0.0 0.00 0.00 0.00 82 1035.2
20260906034912 17 180 0.0 0.0 0.00 0.00 0.00 82 1035.0
20260906033914 17 180 0.0 0.0 0.00 0.00 0.00 80 1035.0
20260906032914 17 180 0.0 0.0 0.00 0.00 0.00 80 1035.0
20260906030915 17 180 0.0 0.0 0.00 0.00 0.00 81 1034.8
20260906024915 17 180 0.0 0.0 0.00 0.00 0.00 80 1034.7
20260906023015 18 180 0.0 0.0 0.00 0.00 0.00 80 1034.7
20260906022112 18 180 0.0 0.0 0.00 0.00 0.00 80 1034.6
20260906021114 18 180 0.0 0.0 0.00 0.00 0.00 79 1034.6
20260906020113 18 180 0.0 0.0 0.00 0.00 0.00 79 1034.6
20260906015114 18 180 0.0 0.0 0.00 0.00 0.00 77 1034.6
20260906014113 18 180 0.0 0.0 0.00 0.00 0.00 78 1034.5
20260906012114 18 180 0.0 0.0 0.00 0.00 0.00 77 1034.3
20260906011115 19 180 0.0 0.0 0.00 0.00 0.00 77 1034.2
20260906005114 19 180 0.0 0.0 0.00 0.00 0.00 76 1034.0
20260906004115 19 180 0.0 0.0 0.00 0.00 0.00 75 1034.0
20260906004013 19 180 0.0 0.0 0.00 0.00 0.00 75 1034.0
20260906003014 20 180 0.0 0.0 0.00 0.00 0.00 73 1033.7
20260906002913 20 180 0.0 0.0 0.00 0.00 0.00 72 1033.7
20260906001915 20 180 0.0 0.0 0.00 0.00 0.00 73 1033.6
20260906001013 20 180 0.0 0.0 0.00 0.00 0.00 72 1033.3
20260906000014 20 180 0.0 0.0 0.00 0.00 0.00 72 1033.3
20260905235914 20 180 0.0 0.0 0.00 0.00 0.00 72 1033.3
20260905235013 20 180 0.0 0.0 0.00 0.00 0.00 69 1033.2
20260905234016 21 180 0.0 0.0 0.00 0.00 0.00 68 1033.0
20260905233015 21 180 0.0 0.0 0.00 0.00 0.00 66 1032.9
20260905232112 21 180 0.0 0.0 0.00 0.00 0.00 67 1033.0
20260905231114 22 180 0.0 0.0 0.00 0.00 0.00 66 1032.8
20260905230131 22 180 0.0 0.0 0.00 0.00 0.00 64 1032.8
20260905225215 22 180 0.0 0.0 0.00 0.00 0.00 63 1032.8
20260905223313 23 180 0.0 0.0 0.00 0.00 0.00 60 1032.8
20260905222316 23 180 0.0 0.0 0.00 0.00 0.00 60 1032.7
20260905221414 23 180 0.0 3.2 0.00 0.00 0.00 61 1032.5
20260905221314 23 180 0.0 0.0 0.00 0.00 0.00 61 1032.5
20260905221212 23 180 0.0 0.0 0.00 0.00 0.00 62 1032.5
20260905220214 23 180 0.0 0.0 0.00 0.00 0.00 61 1032.5
20260905215129 23 180 0.0 0.0 0.00 0.00 0.00 59 1032.4
20260905213214 24 180 0.0 1.6 0.00 0.00 0.00 58 1032.5
20260905212215 24 202 0.0 0.0 0.00 0.00 0.00 59 1032.5
20260905211215 25 157 0.0 0.0 0.00 0.00 0.00 58 1032.6
20260905205213 25 157 0.0 0.0 0.00 0.00 0.00 56 1032.3
20260905204214 26 157 0.0 0.0 0.00 0.00 0.00 56 1032.3
20260905203312 26 112 0.0 0.0 0.00 0.00 0.00 56 1032.4
20260905202314 25 180 0.0 1.6 0.00 0.00 0.00 63 1032.4
20260905201412 24 90 0.0 0.0 0.00 0.00 0.00 64 1032.5
20260905200416 25 90 0.0 0.0 0.00 0.00 0.00 64 1032.6
20260905195412 25 135 0.0 0.0 0.00 0.00 0.00 60 1032.7
20260905194414 25 135 0.0 0.0 0.00 0.00 0.00 58 1032.7